Accueil
METAR-TAF:

METAR-TAF

Aéroports :

Hope, Colombie-Britannique, Canada

latitude: 49-22N, longitude: 121-29W, altitude: 39 m

Observation

Le bulletin a été fait il y a 1 heure et 20 minutes, à 02:00 UTC
Vent 8 kt de ouest/nord-ouest, variant entre ouest et nord
Température 17°C
Humidité 59%
Pression 1016 hPa
Visibilité: 14.5 km
Quelques nuages à une hauteur de 6000 ft

METAR: CYHE 200200Z AUTO 29008KT 270V360 9SM FEW060 17/09 A3001 RMK SLP163 DENSITY ALT 200FT

Heure: 20:20 (03:20 UTC)


TAF: absent

Observations et prévisions météorologiques de plus de 4000 aéroports (messages METAR et TAF).

Les stations disponibles sont représentées par des disques jaunes et rouges sur la carte.

Passer la souris dessus pour voir le nom de la station.

Cliquer dessus pour voir les observations et prévisions météorologiques.

Pour changer de carte: cliquez sur les boutons verts avec une croix noire pour zoomer, sur le bouton vert avec un tiret pour effectuer un zoom arrière, ou sur les flèches vertes pour les cartes adjacentes.


METAR-TAF: